[[{"header":{"parameterUnit":"m.s-1","parameterCategory":1,"la1":30.2991,"la2":30.254,"lo1":-89.0895,"lo2":-89.0444,"dy":0.0017,"dx":0.0017,"nx":28,"ny":28,"refTime":"2024-12-16T09:00:00:Z","depth":0,"parameterNumber":2,"parameterNumberName":"U-component_of_WINDS"},"data":[0,0,0,0,0,0,0,0,0,0,0,0,0,0,0,0,0,0,0,0,0,0,0,0,0,0,0,0,0,0,0,0,0,0,0,0,0,0,0,0,0,0,0,0,0,0,0,0,0,0,0,0,0,0,0,0,0,0,-0.8927,-0.8926,0,-0.8862,-0.8862,-0.8861,-0.8777,-0.8776,-0.8774,-0.8773,-0.8708,-0.8707,-0.8707,0,0,0,0,0,0,0,0,0,0,0,0,0,-0.8978,-0.8977,-0.8927,-0.8926,-0.8925,-0.8862,-0.8862,-0.8861,-0.8777,-0.8776,-0.8774,-0.8773,-0.8708,-0.8707,-0.8707,0,0,0,0,0,0,0,0,0,0,0,0,0,-0.8939,-0.8977,-0.8927,-0.8876,-0.8871,-0.8863,-0.8862,-0.886,-0.8778,-0.8776,-0.8774,-0.8772,-0.8708,-0.8707,-0.8707,-0.8743,0,0,-0.8705,-0.8704,0,0,0,0,0,0,0,0,-0.8941,-0.8937,-0.8884,-0.8879,-0.8874,-0.8826,-0.8855,-0.8821,-0.8778,-0.8813,-0.8773,-0.8771,-0.8749,-0.8745,-0.8737,-0.874,-0.8738,-0.8705,-0.8704,-0.8704,-0.8704,0,0,0,0,0,0,0,-0.8944,-0.8939,-0.8901,-0.8884,-0.8877,-0.8857,-0.8849,-0.8849,-0.8793,-0.881,-0.8804,-0.8797,-0.8745,-0.8738,-0.8735,-0.8737,-0.8705,-0.8704,-0.8704,-0.8703,-0.8767,-0.8769,0,0,0,0,0,0,-0.8954,-0.8942,-0.8903,-0.8899,-0.8903,-0.8857,-0.8849,-0.8843,-0.8793,-0.8783,-0.8799,-0.8794,-0.874,-0.8736,-0.8732,-0.8772,-0.8704,-0.8703,-0.8703,-0.8765,-0.8768,-0.877,0,0,0,0,0,0,-0.8956,-0.8952,-0.8906,-0.8919,-0.8912,-0.8859,-0.8853,-0.8843,-0.8835,-0.8785,-0.8774,-0.8802,-0.8738,-0.8733,-0.8741,-0.8769,-0.8703,-0.8702,-0.8763,-0.8766,-0.8769,-0.8853,0,0,0,0,0,0,-0.8958,-0.8953,-0.8966,-0.892,-0.8911,-0.8916,-0.8855,-0.8843,-0.8834,-0.8827,-0.8784,-0.8775,-0.8736,-0.8743,-0.8741,-0.8767,-0.8702,-0.876,-0.8764,-0.8768,-0.8848,-0.8859,-0.8868,0,0,0,0,0,-0.896,-0.8992,-0.8967,-0.8963,-0.8927,-0.8918,-0.8913,-0.8867,-0.8837,-0.885,-0.8817,-0.8777,-0.8766,-0.8744,-0.8741,-0.8768,-0.8758,-0.8763,-0.8768,-0.8843,-0.8857,-0.8868,0,0,0,0,0,0,-0.9043,-0.8985,-0.8957,-0.8975,-0.8952,-0.8904,-0.8919,-0.8883,-0.8868,-0.8862,-0.8805,-0.8797,-0.8812,-0.879,-0.8767,-0.8801,-0.8756,-0.876,-0.8815,-0.8827,-0.8837,-0.8843,-0.8701,0,0,0,0,0,-0.9063,-0.9061,-0.9011,-0.9032,-0.9022,-0.8973,-0.8967,-0.8934,-0.8908,-0.8897,-0.8865,-0.8842,-0.8833,-0.8829,-0.8818,-0.8844,-0.8834,-0.886,-0.8871,-0.8879,-0.8884,-0.8897,-0.8909,-0.8786,-0.8786,-0.8786,0,0,-0.9106,-0.9074,-0.9076,-0.9048,-0.9026,-0.9025,-0.8965,-0.8966,-0.8965,-0.8898,-0.8904,-0.8879,-0.8849,-0.8867,-0.8873,-0.8849,-0.8916,-0.8885,-0.8893,-0.8893,-0.8903,-0.8915,-0.8925,-0.8789,-0.8788,-0.8788,0,0,-0.9183,-0.9158,-0.9173,-0.9153,-0.9121,-0.9088,-0.9092,-0.9049,-0.903,-0.9035,-0.8984,-0.8982,-0.8968,-0.8949,-0.8938,-0.9007,-0.897,-0.9005,-0.906,-0.9073,-0.9083,-0.9091,-0.9117,-0.9127,-0.901,-0.901,-0.901,0,-0.924,-0.9236,-0.9186,-0.9191,-0.918,-0.9119,-0.9134,-0.9116,-0.9083,-0.9077,-0.9051,-0.9032,-0.9007,-0.902,-0.9037,-0.9029,-0.9033,-0.901,-0.9085,-0.9093,-0.91,-0.9124,-0.9134,-0.9015,-0.9014,-0.9014,-0.9013,0,-0.9308,-0.9306,-0.9323,-0.9292,-0.9283,-0.9293,-0.9244,-0.9241,-0.9209,-0.9179,-0.9185,-0.9153,-0.9135,-0.9135,-0.9104,-0.9144,-0.913,-0.9096,-0.905,-0.9117,-0.9139,-0.9148,-0.9022,-0.902,-0.9018,-0.9017,0,0,-0.9436,-0.9377,-0.9384,-0.937,-0.9329,-0.9327,-0.9335,-0.9317,-0.9316,-0.9294,-0.93,-0.9289,-0.9257,-0.9244,-0.9209,-0.9221,-0.9279,-0.9184,-0.9183,-0.9204,-0.9323,-0.935,-0.9361,-0.9254,-0.9255,-0.9256,-0.9326,0,-0.9506,-0.9516,-0.9471,-0.9493,-0.9491,-0.9432,-0.9439,-0.9415,-0.9387,-0.9382,-0.9351,-0.9345,-0.9302,-0.9294,-0.9303,-0.9271,-0.9303,-0.9265,-0.9259,-0.9259,-0.9269,-0.9372,-0.9401,-0.9468,-0.9334,-0.9335,-0.9336,0,-0.959,-0.9573,-0.9595,-0.9554,-0.9551,-0.9558,-0.9538,-0.9534,-0.9506,-0.9484,-0.947,-0.943,-0.9435,-0.9391,-0.9397,-0.9372,-0.9367,-0.9351,-0.9352,-0.9351,-0.9303,-0.9375,-0.9488,-0.9499,-0.9349,-0.9348,-0.9347,0,-0.9683,-0.9665,-0.9676,-0.9665,-0.9617,-0.9624,-0.9604,-0.9574,-0.9566,-0.9549,-0.9544,-0.9527,-0.9519,-0.9507,-0.9464,-0.9436,-0.9475,-0.9427,-0.9459,-0.946,-0.9471,-0.9471,-0.9586,-0.9466,-0.9466,-0.9465,-0.9465,0,-0.9766,-0.9782,-0.9717,-0.9724,-0.974,-0.9688,-0.9705,-0.968,-0.9654,-0.9655,-0.9603,-0.9605,-0.9547,-0.9543,-0.9509,-0.952,-0.9516,-0.9499,-0.949,-0.9505,-0.9507,-0.9501,-0.9496,-0.9468,-0.9467,-0.9467,-0.9466,0,-0.9873,-0.983,-0.9838,-0.9792,-0.9781,-0.9795,-0.9756,-0.9761,-0.9729,-0.9731,-0.9729,-0.968,-0.9672,-0.9628,-0.961,-0.9587,-0.961,-0.9591,-0.962,-0.9614,-0.9648,-0.9646,-0.9764,-0.9778,-0.9649,-0.965,-0.9651,0,-0.993,-0.9941,-0.9896,-0.9893,-0.9876,-0.9872,-0.9864,-0.9813,-0.9807,-0.9776,-0.9785,-0.9773,-0.976,-0.9751,-0.9714,-0.97,-0.9681,-0.9724,-0.9679,-0.9693,-0.9683,-0.9684,-0.9685,-0.9734,-0.9735,-0.9737,-0.9738,0,-1.0036,-1.0014,-1.0004,-0.9988,-0.998,-0.9964,-0.9945,-0.9946,-0.989,-0.9886,-0.9877,-0.9868,-0.9849,-0.9839,-0.9818,-0.9798,-0.9759,-0.9752,-0.9759,-0.9774,-0.9791,-0.9783,-0.9647,-0.975,-0.9749,-0.9748,-0.9747,-0.9747,-1.012,-1.0127,-1.0097,-1.0088,-1.0069,-1.0052,-1.0055,-1.0024,-1.0016,-0.9997,-0.9967,-0.9964,-0.9935,-0.9904,-0.9887,-0.9883,-0.9861,-0.987,-0.9873,-0.9876,-0.9884,-0.979,-0.9879,-0.9879,-0.9878,-0.9878,-0.9878,0,-1.0224,-1.0202,-1.0194,-1.017,-1.0163,-1.0126,-1.0103,-1.0101,-1.0098,-1.0075,-1.0064,-1.0054,-1.0044,-1.0006,-0.9991,-0.9996,-0.9977,-0.9994,-0.9993,-0.9989,-0.9905,-0.9901,-1.0009,-1.0009,-1.0009,-1.0009,-1.0009,-1.0008,-1.0277,-1.0288,-1.0263,-1.0263,-1.024,-1.0236,-1.0226,-1.0211,-1.0193,-1.0185,-1.0175,-1.0151,-1.0122,-1.0105,-1.0093,-1.0082,-1.008,-1.0103,-1.0086,-1.0008,-0.9995,-0.9983,-0.998,-1.0102,-1.0102,-1.0171,-1.0172,-1.0172]},{"header":{"parameterUnit":"m.s-1","parameterCategory":1,"la1":30.2991,"la2":30.254,"lo1":-89.0895,"lo2":-89.0444,"dy":0.0017,"dx":0.0017,"nx":28,"ny":28,"refTime":"2024-12-16T09:00:00:Z","depth":0,"parameterNumber":3,"parameterNumberName":"V-component_of_WINDS"},"data":[0,0,0,0,0,0,0,0,0,0,0,0,0,0,0,0,0,0,0,0,0,0,0,0,0,0,0,0,0,0,0,0,0,0,0,0,0,0,0,0,0,0,0,0,0,0,0,0,0,0,0,0,0,0,0,0,0,0,-1.3633,-1.3634,0,-1.3704,-1.3704,-1.3705,-1.3712,-1.3711,-1.3711,-1.371,-1.3784,-1.3787,-1.3789,0,0,0,0,0,0,0,0,0,0,0,0,0,-1.3507,-1.3509,-1.3633,-1.3634,-1.3635,-1.3703,-1.3704,-1.3705,-1.3712,-1.3711,-1.3711,-1.371,-1.3783,-1.3787,-1.379,0,0,0,0,0,0,0,0,0,0,0,0,0,-1.3568,-1.351,-1.3633,-1.3647,-1.3649,-1.3703,-1.3704,-1.3706,-1.3712,-1.3711,-1.371,-1.3709,-1.3782,-1.3786,-1.379,-1.3837,0,0,-1.3802,-1.3804,0,0,0,0,0,0,0,0,-1.3565,-1.3573,-1.3644,-1.3646,-1.3648,-1.3698,-1.3687,-1.375,-1.3713,-1.3688,-1.371,-1.3709,-1.3757,-1.3763,-1.3778,-1.384,-1.3843,-1.3803,-1.3805,-1.3807,-1.3808,0,0,0,0,0,0,0,-1.356,-1.357,-1.3661,-1.3645,-1.3648,-1.365,-1.3657,-1.3699,-1.3728,-1.369,-1.3691,-1.3699,-1.3758,-1.3774,-1.378,-1.3845,-1.3803,-1.3806,-1.3809,-1.381,-1.3948,-1.3949,0,0,0,0,0,0,-1.3553,-1.3566,-1.3659,-1.3663,-1.3603,-1.3653,-1.3661,-1.3683,-1.3727,-1.3733,-1.37,-1.3699,-1.3768,-1.3775,-1.3783,-1.384,-1.3807,-1.3811,-1.3813,-1.3947,-1.3948,-1.395,0,0,0,0,0,0,-1.3551,-1.3562,-1.3656,-1.3615,-1.3627,-1.3656,-1.3681,-1.3685,-1.3702,-1.3735,-1.374,-1.3712,-1.3768,-1.3777,-1.3823,-1.3843,-1.3812,-1.3816,-1.3945,-1.3947,-1.3949,-1.3955,0,0,0,0,0,0,-1.3547,-1.3561,-1.3578,-1.3615,-1.3629,-1.3695,-1.3682,-1.3687,-1.3708,-1.3708,-1.3747,-1.3753,-1.3767,-1.3817,-1.3827,-1.3848,-1.3819,-1.3944,-1.3946,-1.3948,-1.3953,-1.3957,-1.396,0,0,0,0,0,-1.3543,-1.3578,-1.3579,-1.359,-1.3652,-1.3696,-1.3704,-1.372,-1.371,-1.3728,-1.3749,-1.3751,-1.3839,-1.3822,-1.3833,-1.3855,-1.3942,-1.3945,-1.3948,-1.3952,-1.3956,-1.396,0,0,0,0,0,0,-1.3544,-1.3583,-1.3585,-1.3633,-1.3661,-1.3697,-1.3721,-1.3724,-1.3756,-1.3754,-1.3773,-1.3782,-1.3827,-1.3846,-1.3826,-1.3902,-1.389,-1.3895,-1.3889,-1.3893,-1.3897,-1.3892,-1.3822,0,0,0,0,0,-1.3549,-1.3581,-1.3614,-1.3654,-1.3667,-1.3691,-1.3711,-1.3721,-1.3751,-1.3763,-1.3787,-1.3817,-1.3851,-1.3873,-1.3906,-1.3956,-1.3965,-1.3977,-1.398,-1.3983,-1.3987,-1.4015,-1.4021,-1.3959,-1.3959,-1.3959,0,0,-1.3562,-1.3587,-1.3606,-1.3654,-1.3677,-1.371,-1.3701,-1.3737,-1.3762,-1.3769,-1.3813,-1.3832,-1.3866,-1.3914,-1.3936,-1.3931,-1.4006,-1.3986,-1.3988,-1.3991,-1.4018,-1.4024,-1.4029,-1.3961,-1.396,-1.396,0,0,-1.3602,-1.3624,-1.3659,-1.3681,-1.3715,-1.3731,-1.3739,-1.3775,-1.3787,-1.3832,-1.3838,-1.3868,-1.3926,-1.395,-1.397,-1.4017,-1.4021,-1.4028,-1.4046,-1.4073,-1.4077,-1.4082,-1.4099,-1.4105,-1.4032,-1.4032,-1.4032,0,-1.3613,-1.3662,-1.3677,-1.3712,-1.3733,-1.3739,-1.3775,-1.3797,-1.384,-1.3855,-1.3848,-1.392,-1.3944,-1.3997,-1.4009,-1.4025,-1.4035,-1.4024,-1.4075,-1.408,-1.4084,-1.4101,-1.4107,-1.4033,-1.4032,-1.4032,-1.4032,0,-1.3675,-1.3709,-1.3733,-1.3774,-1.3798,-1.3833,-1.3853,-1.3876,-1.3883,-1.3899,-1.3945,-1.3973,-1.4012,-1.4025,-1.4033,-1.4079,-1.4075,-1.4071,-1.4059,-1.4091,-1.4107,-1.4113,-1.4034,-1.4033,-1.4033,-1.4033,0,0,-1.3719,-1.3766,-1.3774,-1.3793,-1.383,-1.3857,-1.3893,-1.393,-1.3948,-1.3978,-1.4009,-1.4057,-1.4054,-1.4076,-1.4087,-1.411,-1.4146,-1.4104,-1.4105,-1.4111,-1.4199,-1.4202,-1.4209,-1.4148,-1.4149,-1.415,-1.4196,0,-1.3763,-1.3825,-1.3839,-1.3893,-1.3925,-1.3931,-1.3962,-1.3988,-1.4004,-1.4034,-1.4052,-1.4086,-1.4079,-1.4093,-1.4116,-1.4136,-1.4164,-1.4133,-1.4177,-1.4178,-1.4169,-1.4217,-1.4221,-1.4263,-1.4203,-1.4204,-1.4204,0,-1.3823,-1.3853,-1.391,-1.3942,-1.3956,-1.3984,-1.4018,-1.4046,-1.4077,-1.4087,-1.4111,-1.4119,-1.4156,-1.4141,-1.4193,-1.4172,-1.4191,-1.4203,-1.4206,-1.4211,-1.4194,-1.4224,-1.4277,-1.4284,-1.4214,-1.4214,-1.4213,0,-1.3849,-1.3904,-1.3945,-1.396,-1.3999,-1.4018,-1.4036,-1.4065,-1.4086,-1.4116,-1.413,-1.4165,-1.4184,-1.4211,-1.4228,-1.4215,-1.4279,-1.4265,-1.4289,-1.4288,-1.4303,-1.4302,-1.4359,-1.4313,-1.4313,-1.4313,-1.4313,0,-1.3898,-1.3933,-1.3957,-1.3982,-1.4022,-1.4037,-1.4075,-1.4093,-1.4118,-1.4147,-1.4155,-1.4182,-1.4202,-1.4233,-1.4246,-1.4287,-1.4296,-1.4305,-1.4309,-1.4305,-1.4304,-1.4318,-1.4316,-1.4315,-1.4314,-1.4314,-1.4314,0,-1.3934,-1.3952,-1.3997,-1.403,-1.4039,-1.4066,-1.4095,-1.412,-1.4135,-1.4172,-1.4182,-1.4206,-1.4242,-1.4261,-1.4307,-1.4316,-1.4362,-1.4363,-1.4352,-1.4353,-1.4376,-1.4373,-1.4445,-1.4456,-1.4402,-1.4403,-1.4403,0,-1.3964,-1.3991,-1.4026,-1.4046,-1.4063,-1.4095,-1.4116,-1.4132,-1.4154,-1.4189,-1.421,-1.4246,-1.4276,-1.4333,-1.4356,-1.439,-1.4393,-1.4415,-1.4398,-1.4394,-1.4394,-1.4392,-1.4395,-1.4419,-1.4419,-1.442,-1.442,0,-1.4016,-1.4023,-1.4053,-1.4086,-1.411,-1.4137,-1.4164,-1.418,-1.42,-1.4224,-1.426,-1.4283,-1.4329,-1.4365,-1.4401,-1.4419,-1.4423,-1.4425,-1.4432,-1.443,-1.4422,-1.4427,-1.4361,-1.4424,-1.4423,-1.4423,-1.4423,-1.4423,-1.405,-1.4074,-1.4102,-1.4135,-1.4157,-1.4181,-1.4206,-1.4224,-1.4254,-1.4292,-1.43,-1.4338,-1.4367,-1.4416,-1.4435,-1.4466,-1.4461,-1.4472,-1.4474,-1.4477,-1.4478,-1.4416,-1.4472,-1.4472,-1.4472,-1.4472,-1.4472,0,-1.4102,-1.412,-1.415,-1.4187,-1.4213,-1.4213,-1.4242,-1.4264,-1.4297,-1.4324,-1.4352,-1.4394,-1.4428,-1.4453,-1.4488,-1.4508,-1.4511,-1.4517,-1.4516,-1.452,-1.448,-1.447,-1.4514,-1.4514,-1.4514,-1.4514,-1.4514,-1.4514,-1.4132,-1.4173,-1.4183,-1.4234,-1.4252,-1.4289,-1.4306,-1.4329,-1.4349,-1.4395,-1.4423,-1.4439,-1.4465,-1.4502,-1.4533,-1.454,-1.4553,-1.4559,-1.4565,-1.4527,-1.4523,-1.4519,-1.451,-1.4561,-1.4561,-1.4603,-1.4603,-1.4604]}]]